Regional Weather Roundup
Issued by NWS Little Rock, AR

Home | Current Version | Previous Version | Graphics & Text | Print | Product List | Glossary On
Versions: 1 2 3 4 5 6 7 8 9 10 11 12 13 14 15 16 17 18 19 20 21 22 23 24 25 26 27 28 29 30 31 32 33 34 35 36 37 38 39 40 41 42 43 44 45 46 47 48 49 50
000
ASUS44 KLZK 280605
RWRLZK

WEATHER ROUNDUP FOR ARKANSAS
NATIONAL WEATHER SERVICE LITTLE ROCK AR
100 AM CDT SAT MAR 28 2015

NOTE: "FAIR" INDICATES FEW OR NO CLOUDS BELOW 12,000 FEET WITH NO
SIGNIFICANT WEATHER AND/OR OBSTRUCTIONS TO VISIBILITY.

ARZ001-003-010-029-280700-
NORTHWEST ARKANSAS

CITY           SKY/WX    TMP DP  RH WIND       PRES   REMARKS
FAYETTEVILLE   MOCLDY    41  31  67 CALM      30.13F
6HR MIN TEMP:  40; 6HR MAX TEMP:  45;

FORT SMITH     PTCLDY    47  30  51 CALM      30.15F
6HR MIN TEMP:  47; 6HR MAX TEMP:  54;

HARRISON       CLOUDY    41  28  60 E3        30.15F
6HR MIN TEMP:  40; 6HR MAX TEMP:  45;

BENTONVILLE    CLOUDY    43  25  49 E6        30.13F
6HR MIN TEMP:  43; 6HR MAX TEMP:  46;

ROGERS         CLOUDY    43  26  51 E5        30.14F
6HR MIN TEMP:  43; 6HR MAX TEMP:  45;

SILOAM SPGS    CLOUDY    43  27  52 SE6       30.14R
6HR MIN TEMP:  43; 6HR MAX TEMP:  46;

HIGHFILL       MOCLDY    43  26  51 E5        30.12F
6HR MIN TEMP:  43; 6HR MAX TEMP:  46;

$$

ARZ004-005-016-280700-
NORTH CENTRAL ARKANSAS

CITY           SKY/WX    TMP DP  RH WIND       PRES   REMARKS
BATESVILLE     CLOUDY    41  28  60 E8        30.18S
6HR MIN TEMP:  39; 6HR MAX TEMP:  46;

FLIPPIN        CLOUDY    43  28  56 CALM      30.17S
6HR MIN TEMP:  41; 6HR MAX TEMP:  46;

MTN HOME       CLOUDY    41  25  53 CALM      30.16S
6HR MIN TEMP:  38; 6HR MAX TEMP:  45;

$$

ARZ040-041-280700-
WEST CENTRAL ARKANSAS

CITY           SKY/WX    TMP DP  RH WIND       PRES   REMARKS
MENA           CLEAR     39  34  81 CALM      30.16F
MOUNT IDA      PTCLDY    42  33  70 CALM      30.15S
6HR MIN TEMP:  42; 6HR MAX TEMP:  54;

$$

ARZ009-017-025-026-028-280700-
NORTHEAST ARKANSAS

CITY           SKY/WX    TMP DP  RH WIND       PRES   REMARKS
CORNING          N/A     37  28  70 E5        30.21F
JONESBORO      CLOUDY    37  30  75 E6        30.21S
6HR MIN TEMP:  36; 6HR MAX TEMP:  45;

NEWPORT        CLOUDY    40  31  70 E13       30.21S
6HR MIN TEMP:  40; 6HR MAX TEMP:  46;

BLYTHEVILLE    CLOUDY    37  25  61 E7        30.21S
6HR MIN TEMP:  34; 6HR MAX TEMP:  41;

$$

ARZ022-023-033-042-044-280700-
CENTRAL ARKANSAS

CITY           SKY/WX    TMP DP  RH WIND       PRES   REMARKS
LITTLE ROCK    CLOUDY    46  30  53 CALM      30.19S
6HR MIN TEMP:  45; 6HR MAX TEMP:  53;

N LITTLE ROCK    N/A     44  33  63 E2        30.19S
6HR MIN TEMP:  44; 6HR MAX TEMP:  51;

JACKSONVILLE   CLOUDY    44  36  72 CALM      30.17F
6HR MIN TEMP:  40; 6HR MAX TEMP:  52;

SEARCY         CLOUDY    42  37  82 CALM      30.19F
6HR MIN TEMP:  41; 6HR MAX TEMP:  48;

HOT SPRINGS    MOCLDY    44  32  62 E3        30.18F
6HR MIN TEMP:  43; 6HR MAX TEMP:  54;

RUSSELLVILLE   CLOUDY    45  35  68 CALM      30.17F
6HR MIN TEMP:  43; 6HR MAX TEMP:  54;

CLINTON        CLOUDY    43  34  70 CALM      30.19S
$$

ARZ036-280700-
EAST ARKANSAS

CITY           SKY/WX    TMP DP  RH WIND       PRES   REMARKS
WEST MEMPHIS   MOCLDY    39  26  59 E10       30.19F
6HR MIN TEMP:  37; 6HR MAX TEMP:  45;

$$

ARZ050-053-066-070-073-280700-
SOUTHWEST ARKANSAS

CITY           SKY/WX    TMP DP  RH WIND       PRES   REMARKS
ARKADELPHIA    FAIR      45  42  89 E3        30.20R
6HR MIN TEMP:  44; 6HR MAX TEMP:  56;

CAMDEN         PTCLDY    39  37  93 CALM      30.20R
TEXARKANA      CLEAR     45  35  68 CALM      30.19S
6HR MIN TEMP:  43; 6HR MAX TEMP:  59;

EL DORADO      CLEAR     40  38  93 CALM      30.20R
6HR MIN TEMP:  40; 6HR MAX TEMP:  58;

DE QUEEN       PTCLDY    40  38  93 CALM      30.17F
6HR MIN TEMP:  39; 6HR MAX TEMP:  55;

$$

ARZ056-057-069-280700-
SOUTHEAST ARKANSAS

CITY           SKY/WX    TMP DP  RH WIND       PRES   REMARKS
PINE BLUFF     MOCLDY    44  35  70 E6        30.19S
6HR MIN TEMP:  42; 6HR MAX TEMP:  51;

STUTTGART      CLOUDY    45  30  57 E6        30.19S
6HR MIN TEMP:  45; 6HR MAX TEMP:  50;

MONTICELLO     CLOUDY    42  38  85 CALM      30.18R
6HR MIN TEMP:  40; 6HR MAX TEMP:  51;


$$





USA.gov is the U.S. government's official web portal to all federal, state and local government web resources and services.